Regional Weather Roundup
Issued by NWS Upton, NY

Current Version | Previous Version | Text Only | Print | Product List | Glossary Off
Versions: 1 2 3 4 5 6 7 8 9 10 11 12 13 14 15 16 17 18 19 20 21 22 23 24 25 26 27 28 29 30 31 32 33 34 35 36 37 38 39 40 41 42 43 44 45 46 47 48 49 50

000
ASUS41 KOKX 281105
RWROKX

REGIONAL WEATHER ROUNDUP
NATIONAL WEATHER SERVICE NEW YORK NY
700 AM EDT THU AUG 28 2014

NOTE: "FAIR" INDICATES FEW OR NO CLOUDS BELOW 12,000 FEET WITH NO
SIGNIFICANT WEATHER AND/OR OBSTRUCTIONS TO VISIBILITY.

NYZ071-072-176-178-NJZ106-104-281200-
NEW YORK CITY METRO AREA


CITY           SKY/WX    TMP DP  RH WIND       PRES   REMARKS
CENTRAL PARK   CLEAR     69  54  58 VRB7      29.91R
LAGUARDIA APRT PTCLDY    70  57  63 N9        29.87R
KENNEDY INTL   PTCLDY    71  62  73 N8        29.88R
NEWARK/LIBERTY PTCLDY    70  54  56 NW9       29.88S
BRNX BOT. GARD   N/A     66  55  68 NE5       29.89S
TETERBORO      CLEAR     68  54  60 NW9       29.87R
$$

NYZ177-179-078>081-281200-
LONG ISLAND NEW YORK

CITY           SKY/WX    TMP DP  RH WIND       PRES   REMARKS
FARMINGDALE    CLEAR     68  59  73 N7        29.87R
ISLIP          PTCLDY    68  60  75 NW10      29.84S
SHIRLEY        CLEAR     66  60  81 N6        29.86R
WESTHAMPTON    CLEAR     67  60  78 NW9       29.86R
MONTAUK POINT    N/A     69  62  78 NW7       29.83S
$$

NYZ052-065-067-281200-
HUDSON VALLEY

CITY           SKY/WX    TMP DP  RH WIND       PRES   REMARKS
WHITE PLAINS   CLEAR     64  57  78 N13       29.89R
NEWBURGH       CLEAR     61  57  88 CALM      29.93R
MONTGOMERY     CLEAR     64  54  69 NW8       29.91R
POUGHKEEPSIE   CLEAR     59  57  93 CALM      29.90R
ALBANY         PTCLDY    63  58  83 NW7       29.92R
$$

NJZ001-105-106-008-010-013-015-019>022-104-281200-
NEW JERSEY

CITY           SKY/WX    TMP DP  RH WIND       PRES   REMARKS
NEWARK/LIBERTY PTCLDY    70  54  56 NW9       29.88S
TETERBORO      CLEAR     68  54  60 NW9       29.87R
CALDWELL       CLEAR     65  53  65 CALM      29.90R
MORRISTOWN     CLEAR     66  55  68 N8G20     29.90S
SOMERVILLE     CLEAR     67  54  63 N6        29.90R
LINDEN         FAIR      73  58  58 NW5       29.91R
SUSSEX         PTCLDY    65  56  72 NW7       29.94R
ANDOVER          N/A     62  55  77 VRB6      29.95R
TRENTON        CLEAR     67  54  63 N7        29.91R
MILLVILLE      CLEAR     72  62  71 N8        29.89R
ATLANTIC CITY  MOCLDY    71  59  65 N13       29.88R
WRIGHTSTOWN    CLEAR     69  57  65 N10G20    29.88R
TOMS RIVER     PTCLDY    70  59  68 NW5       29.89R
BELMAR         CLEAR     70  54  56 NW8       29.89R
$$

PAZ047>061-062-071-281200-
EASTERN PENNSYLVANIA

CITY           SKY/WX    TMP DP  RH WIND       PRES   REMARKS
PHILADELPHIA   PTCLDY    72  57  59 N14       29.92R
ALLENTOWN      CLEAR     63  55  75 NW7       29.95R
SCRANTON       CLOUDY    61  54  77 CALM      30.01R
$$

CTZ002-004>006-009-010-012-RIZ004-006-007-MAZ004-011-015-281200-
SOUTHERN NEW ENGLAND
 IN CT

CITY           SKY/WX    TMP DP  RH WIND       PRES   REMARKS
BRADLEY INTL   PTCLDY    64  58  80 N5        29.86R
HARTFORD       CLEAR     66  58  75 N6        29.86R
DANBURY        CLEAR     63  57  81 N5        29.91R
WTRBRY/OXFORD  CLEAR     61  55  82 CALM      29.91R
BRIDGEPORT     CLEAR     66  59  78 N13       29.86R
MERIDEN        CLEAR     66  58  75 NW8       29.87R
NEW HAVEN      PTCLDY    66  59  78 NW5       29.86R
CHESTER        FAIR      64  59  82 N9        29.86S
GROTON         CLEAR     67  61  81 N10       29.82R
WILLIMANTIC    MOCLDY    62  60  93 CALM      29.85S

 IN RI

CITY           SKY/WX    TMP DP  RH WIND       PRES   REMARKS
PROVIDENCE     PTCLDY    69  60  73 N12       29.82S
BLOCK ISLAND   CLEAR     68  63  83 N9        29.81S
WESTERLY       CLEAR     68  62  81 N9        29.82S

 IN MA

CITY           SKY/WX    TMP DP  RH WIND       PRES   REMARKS
BOSTON         MOCLDY    71  59  65 NW12      29.82R
WORCESTER      MOCLDY    64  56  75 N10       29.87R
WESTFIELD      CLEAR     64  59  83 N6        29.87R
PROVINCETOWN   CLOUDY    70  63  78 N12       29.79R
NANTUCKET      PTCLDY    68  66  93 NW9       29.76F
$$

ANZ330-335-338-340-345-350-353-355-281200-
COASTAL MARINE OBSERVATIONS


STATION/POSITION TIME  SKY/WX   TEMP    WIND        PRES    VSBY  WAVE
                                AIR SEA DIR/SP/G                  HT/PER
                 (UTC)          (F)     (DEG/KT/KT) (MB)    (MI)  (FT/S)
NY HARB ENTRANCE NOT AVBL
4S FIRE IS       NOT AVBL
23SW MTP         1100                                 N/A           7/13
HUDSON CANYON    1100            73 73  330/ 10/ 12 1009.5          7/14
EXECUTION ROCKS  1100            70 74   10/ 12/ 16   N/A
WESTERN LI SOUND 1100            68     360/ 10/ 14   N/A           1
CENTRAL LI SOUND 1000            69 73  330/ 14/ 16   N/A           1/ 2
EASTERN LI SOUND 1000            69 68  360/ 12/ 16   N/A
ROBBINS REEF     1000            71     340/  8/ 10   N/A
$$


>>>>>>>>>>>>>>>>>>>>>>>>>>>> KEY <<<<<<<<<<<<<<<<<<<<<<<<<<<
>                                                          <
>     SKY/WX - SKY CONDITION/PRESENT WEATHER               <
>     TMP    - TEMPERATURE IN FAHRENHEIT                   <
>     DP     - DEWPOINT IN FAHRENHEIT                      <
>     RH     - RELATIVE HUMIDITY IN PERCENT                <
>     WIND   - DIRECTION AND SPEED IN MPH                  <
>     PRES   - MEAN SEA LEVEL PRESSURE IN INCHES OF HG     <
>     WCI    - WIND CHILL INDEX                            <
>     VSB    - VISIBILITY IN MILES                         <
>     HX     - HEAT INDEX                                  <
>     TC     - TEMPERATURE IN CELSIUS                      <
>     VRB    - VARIABLE WIND DIRECTION                     <
>                                                          <
>>>>>>>>>>>>>>>>>>>>>>>>>>>> KEY <<<<<<<<<<<<<<<<<<<<<<<<<<<





USA.gov is the U.S. government's official web portal to all federal, state and local government web resources and services.